Location: Go�ngahuizen
(53.0821°N, 5.8849°E)
Time: 09:06:35
(UTC+00:00)

Cosmos 2181 Rocket - Pass Details

Date: 09 April 2020
Orbit: 952 x 1014 km, 82.9° (Epoch: 01 June)

Event Time Altitude Azimuth Distance (km) Brightness Sun altitude
Rises 19:28:54 0° 163° (SSE) 3,674 6.6 -9.6°
Reaches altitude 10° 19:31:33 10° 157° (SSE) 2,721 5.9 -9.9°
Maximum altitude 19:37:19 42° 89° (E) 1,358 4.4 -10.7°
Drops below altitude 10° 19:43:03 10° 21° (NNE) 2,705 6.4 -11.4°
Sets 19:45:39 0° 15° (NNE) 3,650 7.2 -11.8°
